User: anonymous
Location: Caltech
(34.1382°N, 118.1253°W)
Time: 07:14:17
(UTC-07:00)
Language:

HO-68 - Orbit

View from above orbital plane
View from above orbital plane
View from above satellite
View from above satellite

Ground track
Ground track

The orbit data is extracted from the following two-line orbital elements,

1 36122U 09072B   14265.01816438 -.00000043  00000-0  00000+0 0  9662
2 36122 100.2387 313.8976 0007589 016.8533 343.2834 13.16318237229172
Epoch (UTC): 22 September 2014 00:26:09
Eccentricity: 0.0007589
inclination: 100.2387°
perigee height: 1193 km
apogee height: 1204 km
right ascension of ascending node: 313.8976°
argument of perigee: 16.8533°
revolutions per day: 13.16318237
mean anomaly at epoch: 343.2834°
orbit number at epoch: 22917

The dashed part of the orbit path shows where the satellite is in the earth's shadow,  

DLR